When you browse on this site, cookies collect data to enhance your experience and personalize the content and advertising you see.
Visit our Privacy Policy to learn more. By continuing to use the site, you agree to this use of cookies and data.
  • In Hungary
  • List of Countries
  • For 7 days
  • Water Temperature
  • Satellite Maps
  • Weather Map
  • News
  • Weather Widgets
  • user-avatar
    Login

    Hourly Weather Kantabanji

    Today, 18 July, Thursday

    Time Temperature Precipitation Wind Pressure Humidity
    00:00 +30°C° 0 mm 1 mps 727 mmHg 74%
    01:00 +29°C° 0.3 mm 1 mps 727 mmHg 75%
    02:00 +29°C° 0.3 mm 1 mps 726 mmHg 76%
    03:00 +29°C° 0.3 mm 1 mps 726 mmHg 78%
    04:00 +29°C° 0.6 mm 1 mps 726 mmHg 79%
    05:00 +29°C° 0.6 mm 1 mps 726 mmHg 81%
    06:00 +26°C° 0 mm 0 mps 726 mmHg 84%
    07:00 +27°C° 0.4 mm 0 mps 726 mmHg 80%
    08:00 +28°C° 0.4 mm 0 mps 726 mmHg 76%
    09:00 +31°C° 0.4 mm 1 mps 727 mmHg 72%
    10:00 +32°C° 1.9 mm 1 mps 727 mmHg 67%
    11:00 +34°C° 1.9 mm 2 mps 727 mmHg 63%
    12:00 +35°C° 0 mm 4 mps 727 mmHg 61%
    13:00 +35°C° 1 mm 3 mps 726 mmHg 60%
    14:00 +35°C° 1 mm 3 mps 726 mmHg 60%
    15:00 +35°C° 1 mm 2 mps 725 mmHg 59%
    16:00 +34°C° 0.3 mm 2 mps 725 mmHg 64%
    17:00 +32°C° 0.3 mm 2 mps 725 mmHg 69%
    18:00 +31°C° 0.3 mm 2 mps 725 mmHg 74%
    19:00 +31°C° 1.5 mm 2 mps 725 mmHg 77%
    20:00 +30°C° 1.5 mm 2 mps 725 mmHg 80%
    21:00 +29°C° 1.5 mm 2 mps 726 mmHg 82%
    22:00 +29°C° 0.1 mm 2 mps 726 mmHg 83%
    23:00 +29°C° 0.1 mm 1 mps 726 mmHg 83%

    Tomorrow, 19 July, Friday

    Time Temperature Precipitation Wind Pressure Humidity
    00:00 +29°C° 0.1 mm 1 mps 726 mmHg 83%
    01:00 +28°C° 0.5 mm 1 mps 726 mmHg 84%
    02:00 +28°C° 0.5 mm 1 mps 725 mmHg 85%
    03:00 +26°C° 0.5 mm 0 mps 725 mmHg 86%
    04:00 +26°C° 0.7 mm 0 mps 725 mmHg 87%
    05:00 +26°C° 0.7 mm 0 mps 725 mmHg 87%
    06:00 +25°C° 0.7 mm 0 mps 726 mmHg 88%
    07:00 +27°C° 0.3 mm 0 mps 726 mmHg 82%
    08:00 +28°C° 0.3 mm 0 mps 726 mmHg 77%
    09:00 +31°C° 0.3 mm 1 mps 727 mmHg 72%
    10:00 +32°C° 0.8 mm 1 mps 727 mmHg 68%
    11:00 +34°C° 0.8 mm 2 mps 726 mmHg 63%
    12:00 +36°C° 0.8 mm 2 mps 726 mmHg 58%
    13:00 +36°C° 0.9 mm 2 mps 726 mmHg 57%
    14:00 +36°C° 0.9 mm 2 mps 725 mmHg 55%
    15:00 +35°C° 0.9 mm 1 mps 725 mmHg 54%
    16:00 +35°C° 0.6 mm 1 mps 725 mmHg 57%
    17:00 +35°C° 0.6 mm 1 mps 724 mmHg 61%
    18:00 +34°C° 0.6 mm 1 mps 724 mmHg 65%
    19:00 +33°C° 1.3 mm 1 mps 725 mmHg 69%
    20:00 +32°C° 1.3 mm 2 mps 725 mmHg 73%
    21:00 +30°C° 1.3 mm 2 mps 725 mmHg 77%
    22:00 +30°C° 0.1 mm 2 mps 725 mmHg 79%
    23:00 +30°C° 0.1 mm 2 mps 726 mmHg 81%

    Day after tomorrow, 20 July, Saturday

    Time Temperature Precipitation Wind Pressure Humidity
    00:00 +29°C° 0.1 mm 1 mps 726 mmHg 82%
    01:00 +29°C° 0 mm 1 mps 725 mmHg 83%
    02:00 +28°C° 0 mm 1 mps 725 mmHg 84%
    03:00 +28°C° 0 mm 1 mps 725 mmHg 85%
    04:00 +28°C° 0 mm 1 mps 725 mmHg 86%
    05:00 +28°C° 0 mm 1 mps 726 mmHg 87%
    06:00 +27°C° 0 mm 1 mps 726 mmHg 88%
    07:00 +29°C° 0 mm 2 mps 726 mmHg 83%
    08:00 +30°C° 0 mm 2 mps 727 mmHg 78%
    09:00 +31°C° 0 mm 2 mps 727 mmHg 74%
    10:00 +32°C° 0 mm 2 mps 727 mmHg 69%
    11:00 +34°C° 0 mm 2 mps 727 mmHg 64%
    12:00 +35°C° 0 mm 2 mps 727 mmHg 59%
    13:00 +35°C° 0.1 mm 2 mps 726 mmHg 58%
    14:00 +36°C° 0.1 mm 2 mps 726 mmHg 56%
    15:00 +36°C° 0.1 mm 3 mps 725 mmHg 55%
    16:00 +36°C° 0.3 mm 3 mps 725 mmHg 58%
    17:00 +35°C° 0.3 mm 3 mps 725 mmHg 61%
    18:00 +35°C° 0.3 mm 3 mps 725 mmHg 64%
    19:00 +34°C° 0.3 mm 2 mps 725 mmHg 68%
    20:00 +32°C° 0.3 mm 2 mps 725 mmHg 71%
    21:00 +31°C° 0.3 mm 2 mps 726 mmHg 75%
    22:00 +30°C° 0 mm 2 mps 726 mmHg 77%
    23:00 +30°C° 0 mm 2 mps 726 mmHg 79%

    21 July, Sunday

    Time Temperature Precipitation Wind Pressure Humidity
    00:00 +30°C° 0 mm 2 mps 727 mmHg 80%
    01:00 +29°C° 0 mm 2 mps 726 mmHg 82%
    02:00 +29°C° 0 mm 2 mps 726 mmHg 83%
    03:00 +28°C° 0 mm 2 mps 725 mmHg 85%
    04:00 +28°C° 0 mm 2 mps 726 mmHg 85%
    05:00 +28°C° 0 mm 2 mps 726 mmHg 86%
    06:00 +28°C° 0 mm 2 mps 726 mmHg 87%
    07:00 +29°C° 0 mm 2 mps 726 mmHg 82%
    08:00 +30°C° 0 mm 2 mps 727 mmHg 77%
    09:00 +31°C° 0 mm 2 mps 727 mmHg 73%
    10:00 +32°C° 0.1 mm 2 mps 727 mmHg 68%
    11:00 +34°C° 0.1 mm 2 mps 727 mmHg 63%
    12:00 +35°C° 0.1 mm 2 mps 727 mmHg 58%
    13:00 +36°C° 0.1 mm 2 mps 726 mmHg 57%
    14:00 +36°C° 0.1 mm 2 mps 726 mmHg 55%
    15:00 +37°C° 0.1 mm 2 mps 725 mmHg 53%
    16:00 +36°C° 0.1 mm 2 mps 725 mmHg 55%
    17:00 +36°C° 0.1 mm 2 mps 724 mmHg 58%
    18:00 +36°C° 0.1 mm 2 mps 724 mmHg 60%
    19:00 +35°C° 0 mm 2 mps 725 mmHg 63%
    20:00 +34°C° 0 mm 2 mps 725 mmHg 66%
    21:00 +32°C° 0 mm 2 mps 726 mmHg 70%
    22:00 +31°C° 0 mm 2 mps 726 mmHg 71%
    23:00 +31°C° 0 mm 2 mps 726 mmHg 73%

    22 July, Monday

    Time Temperature Precipitation Wind Pressure Humidity
    00:00 +30°C° 0 mm 2 mps 726 mmHg 75%
    01:00 +30°C° 0 mm 2 mps 726 mmHg 77%
    02:00 +29°C° 0 mm 2 mps 725 mmHg 79%
    03:00 +29°C° 0 mm 2 mps 725 mmHg 81%
    04:00 +29°C° 0 mm 2 mps 725 mmHg 83%
    05:00 +28°C° 0 mm 2 mps 725 mmHg 84%
    06:00 +28°C° 0 mm 1 mps 725 mmHg 86%
    07:00 +29°C° 0 mm 1 mps 726 mmHg 81%
    08:00 +30°C° 0 mm 1 mps 726 mmHg 77%
    09:00 +32°C° 0 mm 1 mps 726 mmHg 72%
    10:00 +33°C° 0 mm 1 mps 726 mmHg 67%
    11:00 +34°C° 0 mm 1 mps 726 mmHg 61%
    12:00 +34°C° 0 mm 0 mps 726 mmHg 56%
    13:00 +36°C° 0 mm 1 mps 725 mmHg 53%
    14:00 +37°C° 0 mm 1 mps 725 mmHg 50%
    15:00 +37°C° 0 mm 1 mps 724 mmHg 47%
    16:00 +37°C° 0 mm 1 mps 724 mmHg 51%
    17:00 +36°C° 0 mm 1 mps 723 mmHg 54%
    18:00 +35°C° 0 mm 1 mps 723 mmHg 57%
    19:00 +34°C° 0 mm 1 mps 724 mmHg 61%
    20:00 +33°C° 0 mm 1 mps 724 mmHg 65%
    21:00 +32°C° 0 mm 1 mps 725 mmHg 69%
    22:00 +32°C° 0 mm 1 mps 725 mmHg 70%
    23:00 +31°C° 0 mm 1 mps 725 mmHg 72%

    23 July, Tuesday

    Time Temperature Precipitation Wind Pressure Humidity
    00:00 +31°C° 0 mm 1 mps 725 mmHg 73%
    01:00 +31°C° 0 mm 1 mps 724 mmHg 74%
    02:00 +30°C° 0 mm 1 mps 724 mmHg 75%
    03:00 +30°C° 0 mm 1 mps 723 mmHg 75%
    04:00 +30°C° 0 mm 1 mps 724 mmHg 77%
    05:00 +29°C° 0 mm 1 mps 724 mmHg 78%
    06:00 +29°C° 0 mm 1 mps 724 mmHg 80%
    07:00 +30°C° 0.2 mm 1 mps 724 mmHg 76%
    08:00 +31°C° 0.2 mm 2 mps 725 mmHg 72%
    09:00 +32°C° 0.2 mm 2 mps 725 mmHg 69%
    10:00 +34°C° 0.2 mm 2 mps 725 mmHg 64%
    11:00 +35°C° 0.2 mm 1 mps 725 mmHg 59%
    12:00 +36°C° 0.2 mm 1 mps 725 mmHg 54%
    13:00 +36°C° 0 mm 1 mps 724 mmHg 51%
    14:00 +37°C° 0 mm 1 mps 724 mmHg 47%
    15:00 +37°C° 0 mm 1 mps 723 mmHg 44%
    16:00 +37°C° 0 mm 1 mps 723 mmHg 47%
    17:00 +37°C° 0 mm 2 mps 723 mmHg 49%
    18:00 +37°C° 0 mm 2 mps 723 mmHg 52%
    19:00 +35°C° 0.1 mm 2 mps 723 mmHg 57%
    20:00 +34°C° 0.1 mm 2 mps 724 mmHg 63%
    21:00 +32°C° 0.1 mm 1 mps 724 mmHg 69%
    22:00 +31°C° 0.3 mm 1 mps 724 mmHg 72%
    23:00 +30°C° 0.3 mm 2 mps 724 mmHg 76%
    Show more